Wind_Speed
8 8 7 6 5 5 4 4 4 5 7 9 9 9 9 10 10 10 10 9 8 8 8 8 8 6 5 5 5 5 5 5 4 4 4 4 4 4 4 3 2 2 1 1 0 1 2 2 2 4 4 5 7 6 4 3 4 5 3 2 3 5 6 7 8 10 12 13 14 17 17 13 13 16 16 14 14 13 12 11 10 9 9 8 8 8 9 9
8 8 7 6 5 5 4 4 4 6 8 9 9 9 9 10 10 10 9 9 8 8 8 8 7 6 6 6 6 5 5 5 4 4 5 5 5 4 4 3 3 2 2 2 1 2 2 2 1 4 4 4 7 5 3 3 4 6 4 3 3 6 7 8 10 12 12 12 13 16 14 10 9 13 14 13 13 13 13 13 11 10 10 9 9 10 11 12
8 7 6 6 5 4 3 4 5 7 8 8 8 9 9 9 9 10 9 9 9 8 8 8 7 6 6 6 6 5 5 7 6 4 5 5 5 5 5 5 4 4 3 3 3 3 2 1 2 3 3 4 4 5 2 3 4 6 5 4 3 7 8 8 10 11 11 10 11 14 13 8 7 11 11 12 13 13 13 12 11 10 10 11 12 13 14 14
8 7 6 6 6 4 3 5 6 8 8 8 8 9 9 9 9 10 9 9 9 9 8 8 7 6 6 6 6 6 4 6 6 5 6 6 6 7 6 6 5 5 5 4 4 3 2 4 4 3 4 4 1 5 1 2 2 5 5 5 5 8 9 8 9 9 9 9 10 12 13 10 8 10 11 11 12 12 12 11 11 11 12 13 14 14 15 16
8 7 7 6 5 3 4 5 7 8 8 8 8 8 9 9 9 10 9 9 9 9 8 7 6 6 6 6 6 5 3 5 6 6 7 7 7 7 6 6 5 5 6 5 5 3 2 4 4 4 5 3 1 1 1 1 2 4 5 5 6 7 7 7 7 7 8 10 11 12 14 12 10 11 12 13 13 12 12 13 14 15 15 16 16 17 17 17
8 8 7 6 4 3 5 6 8 8 8 8 8 8 9 10 9 10 9 9 9 8 8 7 7 7 6 6 5 5 5 6 7 7 8 8 7 7 6 6 5 6 7 6 5 3 2 1 3 4 4 2 2 2 1 1 2 3 4 3 4 4 4 5 7 8 10 11 13 14 14 14 13 12 13 14 14 13 13 14 16 17 18 19 19 19 18 18
10 9 8 6 4 5 6 8 8 8 8 8 9 9 10 9 9 9 9 9 8 8 8 7 7 7 6 5 3 5 8 8 8 8 8 8 8 8 8 7 7 8 6 5 4 2 1 1 4 5 3 2 2 2 2 1 2 1 1 1 1 2 4 7 8 9 11 14 15 16 16 15 16 15 14 14 14 14 14 16 19 20 21 21 21 21 20 19
9 8 6 5 5 6 8 8 7 8 8 9 9 9 9 9 9 9 9 8 8 7 7 7 7 6 7 6 4 6 9 9 9 9 9 9 9 8 8 7 7 6 4 5 6 5 6 6 7 6 4 4 3 3 3 2 4 4 3 3 2 3 5 8 9 11 14 16 17 18 19 19 19 19 17 15 15 16 17 20 23 24 24 24 24 24 23 22
7 6 4 2 5 7 8 8 7 7 8 8 9 9 8 8 9 9 9 8 8 7 7 6 6 6 7 7 7 8 10 9 9 10 9 9 8 8 7 7 8 7 6 8 8 8 9 8 8 7 6 7 6 5 3 3 4 4 3 3 3 4 6 10 12 14 17 18 20 21 22 22 22 21 20 18 17 18 20 22 24 25 26 26 26 26 26 26
6 5 4 2 5 8 8 7 6 7 7 8 8 8 8 8 9 9 8 8 7 7 6 5 6 7 6 8 9 9 10 10 10 10 9 9 9 8 9 9 9 9 9 10 10 10 10 8 7 6 5 5 6 5 3 2 5 5 3 4 7 8 8 12 15 15 17 19 21 23 24 24 23 23 23 21 19 20 21 23 24 24 25 27 27 28 28 28
6 6 5 4 6 7 7 6 6 6 6 7 7 8 8 8 8 8 8 8 7 7 6 5 7 8 8 10 10 9 11 10 10 11 11 11 10 10 11 11 11 11 11 10 10 11 10 9 7 5 4 2 3 4 4 1 2 4 5 7 9 9 8 13 16 14 16 19 22 25 26 26 24 24 25 23 22 21 23 25 24 23 24 26 28 29 29 29
8 8 7 5 6 6 6 5 5 6 6 7 7 8 8 8 7 7 8 8 8 8 7 7 9 9 10 11 10 10 12 11 12 12 12 13 12 12 12 12 12 12 11 10 10 10 10 8 7 5 3 2 2 5 6 3 1 2 5 8 10 8 6 11 15 13 16 18 21 24 23 25 25 25 26 25 24 22 23 25 24 23 24 26 28 28 28 28
8 9 8 7 6 6 5 5 5 6 7 7 8 8 7 7 6 6 6 7 8 9 9 10 10 9 10 10 10 12 13 13 14 13 13 14 13 12 11 11 11 11 11 10 10 10 9 7 6 5 3 2 3 4 4 4 3 1 2 6 9 7 6 10 11 12 17 17 20 21 21 26 26 25 26 25 24 22 23 25 24 23 24 25 26 26 27 28
10 10 9 8 6 6 6 6 6 7 8 8 8 8 7 6 6 7 7 7 8 8 8 9 10 9 9 10 12 14 15 15 15 14 13 13 11 10 11 11 10 10 10 10 10 9 8 8 6 6 4 1 1 2 1 2 4 2 2 5 8 7 7 9 7 11 16 15 19 22 24 27 25 25 26 25 23 22 24 24 23 23 23 24 23 23 25 26
11 10 9 8 7 6 6 6 7 8 8 8 8 8 7 7 7 7 8 9 8 8 9 9 9 10 9 11 14 14 15 15 14 13 12 11 10 9 10 10 9 11 10 10 10 9 8 7 6 6 6 3 2 3 2 1 4 4 2 5 8 7 8 8 9 13 16 16 21 23 24 27 26 27 27 25 23 22 24 24 23 23 22 23 23 23 24 25
12 10 9 8 7 6 6 7 8 9 9 8 8 8 8 8 8 8 9 10 9 9 11 10 11 11 10 13 15 14 14 13 12 12 12 10 9 9 10 10 9 10 10 10 10 9 9 7 6 6 8 6 2 5 5 3 5 7 5 7 9 9 11 11 12 15 18 21 23 21 23 27 27 29 28 26 24 23 24 24 24 24 23 23 23 23 24 24
11 10 9 7 7 7 7 9 9 9 8 8 8 8 8 8 8 8 9 10 11 12 12 11 11 10 12 14 13 12 12 12 12 12 11 10 10 10 11 11 9 9 10 11 9 10 10 8 7 6 6 5 0 3 5 5 8 10 9 10 10 11 15 17 17 19 21 22 21 21 23 24 24 26 28 27 26 24 24 25 25 26 25 24 24 24 24 24
11 10 8 7 7 8 9 10 9 9 9 9 9 9 10 10 9 9 9 11 12 12 13 12 11 10 12 13 11 11 12 12 12 11 11 10 10 11 11 11 11 11 12 13 11 11 11 9 10 7 5 4 3 4 5 6 10 12 12 13 13 14 16 19 23 24 24 24 22 22 22 21 22 24 26 27 26 25 24 24 27 28 28 26 25 24 24 25
11 9 8 8 9 10 11 11 10 11 11 11 10 11 14 15 13 12 14 13 11 11 13 14 13 13 14 13 12 13 13 11 10 11 11 10 10 11 11 11 13 13 13 13 11 10 10 10 9 7 6 8 9 11 11 10 12 12 13 15 16 17 17 21 25 26 28 29 26 24 23 22 24 26 26 25 25 25 23 25 28 30 31 29 25 23 23 25
10 9 9 10 11 12 12 12 12 13 14 15 15 16 17 16 13 12 11 10 11 14 16 15 15 15 15 13 13 12 11 10 10 11 11 10 11 10 11 12 14 13 12 13 12 11 10 9 8 7 9 12 12 11 10 10 12 13 13 15 17 18 21 23 26 28 30 32 30 25 24 24 24 26 24 23 24 22 23 26 30 33 33 31 25 21 22 24
10 10 11 12 12 13 13 14 15 15 16 17 17 18 19 16 13 12 10 11 15 17 17 17 16 15 14 13 12 11 11 12 12 12 11 11 11 11 11 13 14 13 13 13 13 12 10 7 7 10 11 11 10 10 11 12 13 14 13 16 17 18 24 25 26 29 29 31 32 25 25 26 25 25 22 22 23 21 24 27 30 33 33 31 26 22 23 24
11 11 12 13 13 14 16 16 16 15 15 16 15 15 16 16 15 14 13 15 18 17 17 17 16 13 12 12 11 11 11 11 11 11 11 11 11 11 11 12 14 13 13 13 12 11 8 7 10 11 11 11 9 11 14 14 14 15 14 15 17 19 26 30 29 30 28 29 30 26 26 26 23 24 22 22 24 24 26 28 31 33 31 29 26 23 23 24
12 13 13 14 15 16 17 17 16 14 13 12 10 10 11 12 14 14 15 16 16 15 15 15 14 13 12 12 12 10 8 9 11 11 12 11 11 11 11 12 14 12 11 10 11 10 9 10 11 11 11 11 12 14 15 14 15 17 15 13 16 20 25 32 35 33 28 26 27 25 27 26 21 20 19 19 21 24 26 28 30 31 29 27 24 22 24 30
13 14 14 15 16 17 17 16 14 12 11 9 7 7 7 8 9 10 12 15 16 15 13 13 13 13 13 12 12 10 8 11 12 12 12 11 11 12 12 13 14 12 11 10 11 11 10 10 10 11 11 13 15 17 17 18 17 18 15 11 18 23 24 30 36 34 31 24 19 21 26 23 13 11 15 15 17 23 26 27 28 27 26 23 22 24 31 36
14 13 14 15 16 16 15 13 11 10 8 7 6 5 4 4 4 5 6 10 15 15 13 13 12 15 15 13 14 11 8 11 13 13 13 13 12 12 13 13 13 12 12 13 11 10 11 10 9 10 12 15 17 18 19 20 21 20 16 14 21 25 26 31 31 31 33 22 15 20 19 11 7 9 14 17 22 27 27 26 25 23 22 22 25 30 34 36
13 13 13 15 15 13 11 9 8 8 7 6 6 5 4 2 2 3 3 5 12 16 15 14 13 16 16 14 16 12 9 13 16 15 15 14 14 14 12 13 12 11 12 12 10 10 12 12 12 11 12 15 17 20 22 22 22 21 19 21 24 24 29 31 27 28 28 20 20 21 11 11 15 13 13 21 29 31 26 22 20 20 22 25 28 31 33 35
12 11 13 14 13 10 7 5 6 7 7 6 5 4 4 4 2 2 2 2 10 15 15 16 15 16 18 17 17 15 11 14 16 15 16 15 16 15 13 13 12 11 10 10 10 10 13 14 13 13 13 15 18 21 23 23 22 21 22 25 25 28 31 30 27 26 25 24 23 14 7 15 17 9 16 30 33 27 21 16 17 21 24 25 27 29 32 36
11 11 12 12 11 6 1 2 4 6 6 4 3 3 4 4 3 3 2 3 7 13 14 16 16 16 18 18 18 17 15 15 15 16 19 18 16 16 14 14 13 12 10 9 10 12 13 15 15 15 16 16 17 20 23 25 23 23 25 26 27 30 31 30 26 21 20 20 17 10 8 12 12 16 29 32 24 18 14 15 19 22 22 23 25 29 32 35
10 10 10 9 8 4 1 3 5 6 4 2 2 3 3 4 3 4 3 3 6 11 13 14 15 15 17 17 17 17 16 17 18 19 20 19 18 18 16 14 14 13 10 9 13 13 14 17 16 16 16 16 17 18 22 26 24 25 27 27 29 30 31 27 16 13 14 11 12 12 9 7 12 29 31 16 9 10 12 15 18 19 20 22 25 28 32 38
10 9 8 7 5 2 3 4 4 3 1 1 1 3 4 4 4 3 3 3 7 10 11 12 14 15 15 14 14 16 16 16 17 17 17 17 18 17 15 14 14 12 9 10 15 14 15 17 15 15 15 16 18 17 21 25 25 26 26 29 32 34 32 15 4 10 10 7 8 8 10 13 11 18 18 10 8 13 18 19 19 19 19 22 26 30 38 45
8 7 6 4 2 1 0 1 2 2 2 1 1 2 4 4 6 4 3 4 6 8 10 11 13 14 13 14 15 16 15 15 16 16 15 15 15 14 14 14 15 14 10 13 18 16 16 17 15 14 15 18 19 18 21 24 24 24 23 28 32 35 29 7 3 10 4 5 8 10 18 21 8 10 16 15 16 24 30 25 20 20 21 23 29 37 45 49
7 6 5 4 4 4 4 5 6 5 4 3 2 3 3 4 8 7 3 5 5 7 9 10 12 13 13 15 16 15 15 15 18 19 19 19 18 18 19 19 20 17 13 19 23 19 19 18 15 14 16 18 19 21 23 22 23 23 21 25 24 20 18 6 4 8 5 11 14 14 22 22 14 16 18 17 24 33 31 22 20 22 24 29 36 43 49 53
7 7 7 7 7 7 7 7 7 6 6 5 4 4 4 4 5 6 5 6 6 8 10 10 12 14 13 14 15 16 16 16 19 20 20 20 19 19 20 20 21 16 15 22 22 20 21 16 14 15 16 17 19 23 25 24 24 22 18 22 16 5 6 6 5 4 9 20 24 22 21 17 15 15 14 22 33 33 23 17 20 23 26 34 42 46 53 60
9 9 9 9 9 8 8 7 7 6 6 6 5 4 5 6 5 5 6 7 7 9 11 9 11 14 14 15 16 18 18 18 20 21 20 19 18 18 19 19 18 16 18 20 17 17 16 11 14 19 18 18 19 21 24 26 24 18 15 18 13 5 3 5 4 3 9 23 33 31 17 7 8 11 17 27 29 22 16 16 22 28 34 40 45 50 59 64
11 10 10 10 9 8 7 6 6 6 6 7 6 5 6 6 5 6 7 7 7 10 12 9 10 13 14 15 16 19 19 19 20 21 20 19 18 18 20 21 18 17 19 18 16 15 11 12 19 21 19 18 18 19 25 25 18 12 14 16 14 13 10 12 14 16 18 19 24 24 15 12 13 19 25 24 15 15 18 26 35 39 42 45 50 59 63 60
12 11 10 9 8 8 7 6 6 7 7 6 5 7 10 8 6 7 7 8 8 11 12 9 10 13 15 15 16 18 19 19 20 20 19 18 17 18 21 22 18 18 20 20 18 13 10 17 22 19 17 16 15 20 25 22 15 13 16 17 17 18 16 15 17 20 18 12 12 15 17 17 18 23 25 18 13 22 29 37 42 42 46 53 59 63 59 54
12 10 9 8 8 8 7 7 7 7 8 6 6 9 12 10 9 8 8 8 9 11 12 11 12 15 17 16 16 17 18 18 19 19 18 17 17 19 22 20 17 19 22 21 19 16 16 24 26 18 14 15 17 23 26 21 19 17 18 19 19 16 14 10 9 10 9 7 10 15 16 14 15 16 17 19 24 31 35 38 42 47 55 60 60 57 53 54
11 11 10 9 8 8 8 8 7 8 7 6 9 12 12 11 10 9 9 9 9 10 12 13 13 14 17 17 17 18 18 19 19 18 17 17 18 21 21 19 19 22 23 21 20 19 20 25 26 19 14 18 22 25 25 21 19 18 19 21 17 12 13 10 6 5 6 5 8 16 20 16 11 11 17 27 29 29 34 41 47 53 55 54 53 51 52 57
11 11 11 11 10 10 9 8 9 10 7 5 10 13 12 11 11 9 9 9 9 11 12 14 14 14 15 16 18 18 19 20 19 18 18 18 20 22 20 20 23 24 24 22 21 21 20 18 19 21 21 23 26 24 22 20 19 20 21 21 17 14 15 15 12 9 8 6 6 14 18 5 6 12 28 28 24 30 43 50 50 50 49 47 47 49 55 56
10 9 11 12 12 11 9 9 11 10 7 9 13 14 12 12 11 10 10 9 10 11 12 14 14 15 15 16 18 18 20 20 18 18 20 20 22 22 19 22 26 25 23 23 21 23 21 14 18 28 29 25 24 23 22 22 21 22 23 21 20 21 20 19 21 18 13 8 3 6 11 4 5 21 30 20 24 40 49 50 49 48 47 45 46 52 56 55
10 10 12 13 13 12 11 11 12 10 11 14 15 14 13 12 11 10 10 10 11 11 12 14 14 15 15 17 18 19 21 20 17 19 21 22 23 21 21 26 27 24 23 23 22 21 20 17 24 33 32 29 27 24 20 19 19 22 23 22 22 26 24 15 13 17 15 11 8 7 12 18 23 26 23 23 37 49 49 47 48 47 45 45 51 57 57 55
11 12 14 14 13 13 12 13 14 13 15 16 14 13 12 11 10 11 11 11 12 12 13 13 15 16 16 18 19 20 23 21 17 20 21 22 23 23 24 26 26 25 24 23 22 21 21 22 27 31 31 30 28 22 15 14 19 21 21 25 27 27 24 15 11 18 18 17 20 17 14 22 27 23 26 39 51 51 48 47 47 46 46 49 56 59 57 55
14 15 16 14 14 14 12 13 15 15 15 16 15 14 13 11 10 11 12 12 12 13 13 13 15 17 17 18 19 20 23 20 17 21 22 22 24 25 25 26 27 27 25 23 22 22 21 20 25 33 36 33 27 20 14 14 20 25 27 32 32 29 29 24 22 25 23 21 22 14 11 23 29 30 40 51 54 50 48 48 47 47 49 54 59 59 56 54
17 18 17 15 15 15 14 16 16 15 16 16 14 13 12 12 12 12 12 13 13 14 14 14 16 17 18 19 20 21 22 19 19 23 23 24 27 26 26 28 28 26 25 24 22 22 19 17 22 28 27 27 25 21 22 27 29 33 36 35 32 32 32 27 26 25 21 25 21 8 12 34 41 42 50 55 55 51 49 49 48 47 52 57 58 56 53 50
17 19 18 17 16 15 17 19 17 16 17 16 14 14 13 13 13 13 13 13 14 15 15 16 17 18 19 20 21 22 22 21 23 24 24 26 28 27 28 29 27 27 27 24 23 23 21 20 22 19 10 11 16 18 26 34 37 39 38 32 32 35 32 28 27 20 18 27 23 14 25 47 51 49 55 59 56 52 51 51 50 50 55 57 55 52 50 47
17 17 18 18 16 15 18 19 17 16 17 15 15 16 15 13 13 13 14 14 15 16 16 17 18 19 20 21 22 22 24 25 24 24 25 27 28 28 29 28 27 27 25 24 24 23 23 23 23 21 19 20 23 27 30 33 37 40 37 33 34 35 34 30 25 23 27 32 31 32 38 46 49 52 57 58 53 51 53 52 52 55 57 55 53 51 47 46
16 16 15 15 15 16 18 18 17 16 16 15 16 16 16 15 14 13 14 15 16 17 17 17 19 20 20 22 23 24 25 25 24 24 26 27 28 28 27 27 26 24 24 25 25 23 25 27 25 25 27 26 28 32 32 31 34 35 33 37 40 37 35 32 29 34 37 28 30 44 44 39 48 55 56 54 52 53 54 53 55 60 58 54 54 50 47 48
18 18 17 15 15 16 17 17 17 16 16 16 17 16 16 16 15 14 14 16 17 17 18 19 20 21 22 23 24 25 26 26 26 26 27 28 29 28 28 27 24 24 26 27 26 25 26 28 27 27 30 30 31 33 32 30 30 31 34 40 39 33 32 34 34 38 36 29 35 48 45 41 50 55 54 54 53 53 55 56 59 59 56 55 54 49 48 51
18 18 18 17 17 17 17 16 16 16 16 16 16 16 16 16 16 15 15 16 17 18 18 20 21 22 23 24 25 26 27 28 29 29 29 30 29 29 29 26 23 26 28 27 27 27 25 27 28 28 33 37 36 33 31 28 30 37 39 34 30 30 31 33 34 35 34 37 42 43 41 45 52 54 53 53 52 53 57 59 60 57 55 55 52 48 49 54
19 19 18 17 17 17 17 16 16 15 15 15 14 15 15 15 16 16 15 16 17 18 19 20 21 22 23 24 25 25 25 26 28 29 30 30 29 28 27 25 24 26 27 26 28 27 25 28 29 29 36 40 37 35 34 32 36 40 34 27 30 35 34 32 33 34 35 40 43 41 43 52 56 54 51 50 53 58 60 61 59 56 55 54 50 48 51 55
20 20 19 17 17 17 17 16 16 15 14 14 13 14 14 15 16 16 16 17 18 19 19 21 21 22 23 23 24 25 25 25 26 26 27 27 26 25 24 23 23 24 25 25 26 26 27 29 31 31 35 39 40 37 37 40 41 34 28 32 38 36 33 33 33 34 36 41 43 43 47 55 56 51 50 54 59 61 61 61 58 56 55 51 48 49 53 57
19 20 20 18 17 17 16 15 15 14 14 14 13 14 14 15 16 17 17 17 18 19 20 21 22 23 23 24 24 25 26 26 25 25 24 23 23 22 21 20 20 21 23 23 24 26 26 28 32 30 30 38 43 38 38 40 31 23 29 39 38 32 32 34 35 38 41 40 41 45 50 52 50 50 55 60 62 61 60 59 56 55 52 48 47 50 55 58
Wind_Direction
148 148 145 139 126 106 90 60 32 23 21 26 39 45 35 28 24 22 22 24 28 26 18 12 11 10 15 20 27 31 26 25 1 336 9 28 31 37 33 30 32 34 69 84 118 69 3 288 185 134 131 99 79 71 78 112 139 152 174 229 283 279 263 261 276 287 286 286 285 280 280 284 285 282 285 294 304 312 314 313 316 316 314 317 320 321 322 325
146 146 140 134 123 108 89 50 28 22 27 39 48 41 27 22 19 19 21 25 28 24 18 12 10 15 22 28 32 35 41 35 7 355 26 34 35 37 34 32 34 38 49 52 43 61 57 238 185 127 134 81 52 28 46 117 155 166 196 251 266 257 260 279 293 295 291 285 280 276 279 285 274 272 286 298 306 313 315 319 323 322 320 319 317 317 319 321
146 144 137 130 122 112 79 41 27 28 40 50 46 33 22 18 17 18 21 23 22 17 16 14 15 22 25 31 33 30 42 38 22 24 41 43 45 41 33 30 33 36 39 46 48 60 78 86 76 109 118 81 24 324 345 130 167 182 211 254 257 262 274 289 293 291 285 278 275 277 288 305 287 279 294 304 308 311 314 318 320 317 312 307 308 310 315 318
146 142 134 127 122 105 63 37 34 43 54 52 37 25 19 18 18 20 20 18 17 15 15 18 23 28 30 33 34 34 50 44 30 39 49 46 44 38 30 32 38 41 42 45 52 67 86 85 90 96 91 90 296 292 329 111 205 211 226 253 259 271 287 291 288 288 288 291 290 292 304 318 311 303 309 312 312 312 313 315 313 308 300 300 305 310 317 324
145 139 129 124 118 86 53 41 49 61 59 42 29 22 19 19 20 20 19 19 18 18 20 27 33 36 39 40 40 49 73 56 38 40 45 40 36 33 30 30 35 45 42 35 35 22 50 106 117 96 95 98 322 313 37 351 264 222 225 246 257 270 288 292 297 308 311 314 311 308 315 322 325 319 318 320 319 319 318 316 313 310 307 310 315 319 324 332
134 127 121 117 105 68 53 56 68 68 49 33 26 22 20 20 22 23 24 25 24 28 34 40 44 42 45 49 50 65 80 66 45 39 38 33 30 29 27 23 27 40 30 20 25 4 323 165 132 96 100 79 42 98 76 310 207 206 225 243 261 279 310 323 326 329 328 326 320 318 324 329 329 325 323 322 321 322 320 318 318 318 319 320 321 322 324 330
121 114 112 101 79 62 63 71 74 60 39 29 24 20 21 23 26 30 34 35 36 43 49 55 56 49 48 50 52 73 71 60 46 37 32 27 24 24 24 21 26 29 15 18 40 43 357 50 99 91 91 79 79 108 78 48 97 118 175 117 41 7 4 351 335 333 338 333 328 328 331 332 329 326 327 325 324 324 322 323 326 327 326 323 321 320 320 322
121 114 108 84 60 67 73 76 71 50 33 25 22 21 25 30 36 45 47 49 53 56 61 64 61 54 53 50 46 63 60 49 41 35 28 24 21 25 27 27 37 34 23 44 57 63 48 41 68 77 85 91 92 99 82 46 63 73 78 78 49 14 3 354 344 347 349 339 334 334 331 332 331 327 326 328 330 329 327 328 329 329 326 323 320 318 317 316
133 125 118 79 62 76 75 74 64 41 29 22 23 27 35 45 53 58 57 58 60 63 64 61 59 51 46 46 44 51 53 44 37 33 29 27 27 35 40 44 54 54 52 56 55 61 59 54 64 67 82 89 89 97 86 59 65 68 77 55 4 349 346 354 358 359 357 344 337 335 329 330 329 322 321 328 333 330 327 327 326 324 322 321 319 316 315 313
144 135 138 110 73 79 74 68 54 34 26 22 27 42 55 65 69 67 64 62 60 60 55 48 55 46 36 44 42 44 47 41 39 39 37 38 40 46 53 53 57 58 56 56 56 60 62 64 64 56 68 85 92 88 72 81 70 59 55 12 3 360 348 354 0 359 356 347 338 335 328 325 325 320 320 325 328 325 324 324 323 321 321 320 319 317 316 314
148 138 141 118 82 79 73 62 46 33 27 29 46 63 72 77 76 70 64 62 59 59 52 45 52 46 44 44 37 42 47 44 46 47 47 48 48 49 54 53 53 55 52 51 54 57 59 59 53 50 63 78 87 66 44 88 71 46 28 12 13 9 348 350 355 348 348 346 337 334 327 320 322 320 318 317 317 317 319 323 322 320 320 321 321 320 319 317
155 148 142 121 95 85 74 61 44 38 38 50 67 76 82 82 76 71 63 60 54 50 45 47 47 41 44 43 37 47 52 51 51 50 51 53 52 49 52 53 53 52 48 47 49 51 53 52 46 51 66 61 75 60 49 60 72 21 13 15 13 12 355 344 344 336 338 339 332 333 322 314 316 313 310 309 309 311 316 321 320 318 321 322 323 323 323 322
149 147 136 121 106 91 75 59 48 51 59 71 80 84 84 78 73 69 62 59 51 44 39 39 38 34 44 49 49 54 56 55 53 51 51 54 55 49 47 49 48 48 45 39 39 43 40 32 30 32 52 91 89 73 62 59 48 7 337 359 2 13 4 340 339 330 330 328 326 328 314 309 313 307 304 305 304 306 313 317 316 316 320 323 325 325 324 324
137 135 126 116 102 86 69 59 61 70 80 85 87 85 80 77 73 65 59 55 46 40 35 35 38 42 52 59 60 61 60 58 55 55 53 54 57 51 45 42 37 38 36 28 29 30 17 9 4 8 23 63 115 104 88 21 24 22 256 327 345 357 351 340 338 330 330 323 323 324 312 310 311 303 302 303 301 304 311 313 311 313 317 319 321 321 320 320
134 126 118 106 90 79 68 71 81 87 92 89 85 80 74 71 67 63 58 48 41 44 46 47 54 58 60 65 66 64 60 57 54 54 53 53 51 46 43 38 29 27 24 19 20 15 3 358 351 3 12 354 221 212 275 323 3 2 305 312 331 334 332 338 342 336 333 321 318 317 307 307 306 299 298 297 298 303 310 311 308 310 311 312 313 314 316 317
129 118 109 96 85 81 80 90 94 95 95 89 84 75 68 63 63 69 57 46 48 55 56 57 64 68 66 65 64 61 61 57 50 49 50 47 42 36 33 29 21 18 15 10 12 5 355 349 351 5 7 2 221 242 283 277 328 345 342 327 326 328 331 339 346 339 328 316 313 307 298 300 300 295 291 289 291 298 306 307 306 306 303 303 305 309 313 314
123 112 102 92 89 91 97 101 99 96 91 82 73 63 62 61 64 69 55 51 58 60 60 58 61 65 62 64 64 63 61 52 45 44 42 38 33 27 23 18 6 2 6 4 5 360 348 343 351 354 351 360 357 265 280 275 317 337 341 333 329 338 342 340 340 336 325 315 310 303 296 297 296 292 288 285 285 291 302 304 302 301 296 295 298 304 308 310
116 106 99 97 99 102 106 104 99 91 77 68 64 63 68 70 74 72 60 64 67 65 64 60 63 65 62 62 60 57 50 42 38 35 32 28 23 19 16 7 350 351 359 356 356 353 346 347 349 332 307 324 334 352 357 334 335 339 337 333 329 337 341 337 337 335 326 317 312 308 302 299 299 293 286 283 283 289 297 302 301 297 293 292 294 301 306 308
112 108 105 105 108 112 112 104 96 85 75 70 72 79 77 73 73 70 67 71 71 70 67 62 62 63 61 56 49 48 43 34 28 27 24 16 12 12 8 357 348 352 354 349 349 345 344 346 337 322 324 350 359 4 10 1 345 334 328 327 324 324 328 331 332 331 327 319 314 313 306 301 302 296 286 281 280 284 293 300 301 296 292 289 290 297 304 305
116 113 111 114 118 118 111 103 94 86 81 75 74 79 77 73 69 68 74 76 65 63 63 57 53 54 52 47 44 43 37 28 22 22 17 5 6 5 356 352 350 349 345 343 345 345 346 338 335 359 13 14 13 5 4 2 347 331 322 318 316 315 317 324 327 327 328 319 313 314 306 300 301 298 291 285 280 283 295 301 301 298 293 288 287 293 299 299
120 118 121 124 121 114 106 99 93 90 87 81 78 78 77 77 73 71 77 68 59 57 57 51 45 44 44 39 36 31 26 20 15 14 5 358 1 357 350 349 345 343 341 343 348 347 344 339 1 25 22 15 10 357 359 3 349 334 321 314 317 316 312 318 323 325 325 314 310 312 303 299 301 296 288 281 278 284 295 300 302 299 292 289 287 290 295 295
125 127 130 126 118 110 103 98 94 92 90 86 83 77 75 76 70 66 64 62 58 52 52 49 40 35 35 29 21 22 20 8 5 5 358 357 356 351 348 344 343 346 344 344 349 347 347 9 25 23 13 5 352 353 3 0 347 337 328 315 315 320 316 318 324 324 321 312 309 313 305 301 303 296 281 272 276 282 289 299 305 297 290 289 287 288 293 296
134 134 131 124 117 111 104 99 93 87 83 80 77 71 73 74 69 62 58 60 58 50 49 47 38 30 26 21 12 10 2 352 358 357 354 357 353 347 347 344 346 348 343 342 349 354 8 24 24 13 1 351 344 353 359 351 345 342 336 318 313 322 321 320 324 324 317 310 310 313 305 302 302 296 284 274 276 282 289 300 303 292 286 286 285 288 297 303
137 134 130 124 120 113 104 96 86 79 70 63 58 61 73 75 68 61 55 55 52 48 45 39 34 25 20 20 12 1 348 352 357 354 354 358 353 350 350 349 349 346 344 351 356 1 13 17 12 5 354 349 353 356 352 346 348 347 341 324 317 323 321 320 323 319 312 310 312 312 308 306 305 300 301 298 295 297 297 298 295 286 284 284 287 298 305 307
134 133 131 130 126 115 102 91 79 68 57 49 39 39 59 62 50 45 46 47 42 40 34 26 23 18 16 15 9 3 354 355 356 356 358 358 357 357 354 353 352 351 352 356 357 356 2 1 351 352 350 352 358 356 353 349 345 345 341 324 320 322 323 324 323 315 312 313 314 318 316 304 303 313 308 307 310 308 301 294 290 286 287 291 300 306 307 306
131 134 136 139 134 118 102 87 67 49 37 35 29 28 32 7 349 10 17 42 32 28 25 18 15 13 11 9 8 5 358 358 360 0 359 357 359 1 357 353 352 355 355 352 351 347 351 346 331 334 343 346 351 351 354 350 341 339 333 323 323 323 326 327 322 312 310 305 306 316 308 276 293 302 298 309 315 309 300 292 289 290 295 302 306 305 303 306
130 136 143 148 145 129 106 74 44 26 19 21 22 36 40 28 23 351 358 57 19 16 18 14 13 10 6 8 8 6 7 3 360 358 360 2 2 0 357 355 353 351 350 348 347 342 345 341 327 322 324 328 339 346 351 347 336 331 328 325 325 327 329 327 318 308 301 299 302 304 295 291 290 291 310 316 313 301 292 290 292 299 304 305 301 298 303 311
131 139 147 156 159 152 114 22 3 354 358 7 19 48 41 33 33 5 33 89 9 5 10 10 12 7 5 8 5 7 11 3 0 1 3 5 3 360 359 360 356 344 336 340 343 338 339 340 331 322 317 318 332 342 347 344 332 328 328 325 325 329 330 324 315 303 296 301 293 273 306 305 287 309 319 313 300 287 291 301 304 305 302 297 295 302 311 314
132 139 148 160 168 181 269 310 323 334 348 6 44 51 27 17 12 9 48 68 2 2 4 6 9 7 7 7 2 8 10 4 6 5 2 2 0 1 1 358 353 340 323 326 338 336 333 334 330 323 316 315 325 333 339 339 330 327 328 324 324 329 330 325 312 298 296 290 263 267 327 347 303 312 316 305 283 291 304 306 302 297 293 296 303 310 312 310
132 137 145 155 172 219 277 297 312 326 7 43 82 39 23 14 351 10 55 17 351 360 3 4 8 9 10 7 5 11 11 8 9 6 3 3 0 360 356 352 354 347 326 324 334 330 326 329 325 319 313 313 318 320 329 333 328 326 328 327 327 332 338 335 284 307 304 265 249 260 325 341 316 308 307 293 291 314 320 311 302 305 308 311 312 311 312 316
131 137 147 157 170 191 336 39 50 80 83 74 96 28 34 32 17 48 74 352 345 355 1 6 7 8 10 11 14 14 11 8 6 7 8 5 1 358 355 356 357 353 338 332 335 330 327 330 327 320 313 311 311 311 322 328 327 327 329 331 333 337 346 356 260 326 299 255 286 272 308 323 300 283 298 292 302 321 323 317 316 322 318 312 311 314 320 323
134 139 144 143 133 120 98 88 80 75 68 64 74 54 52 47 40 59 61 353 350 352 359 8 7 7 11 14 16 14 11 8 5 5 6 7 3 1 4 2 356 356 346 337 338 333 329 330 329 325 317 311 309 315 325 327 327 328 328 338 344 343 348 353 320 331 275 282 293 282 308 315 285 287 300 300 314 322 322 319 319 316 308 308 314 319 321 319
129 127 127 123 116 105 91 84 74 69 66 65 78 68 61 69 54 51 42 20 11 1 3 5 3 6 11 12 12 11 11 9 6 5 5 6 3 4 7 359 355 356 343 337 337 333 331 330 330 330 321 313 313 323 331 329 327 326 327 343 354 360 348 327 307 317 292 297 295 293 308 300 282 297 304 310 316 318 318 316 311 308 310 315 318 317 314 313
121 116 114 107 100 92 83 81 74 70 69 62 64 58 67 83 72 54 45 33 22 12 8 4 2 5 10 12 10 9 8 6 5 4 2 2 1 3 3 355 353 349 339 340 337 332 330 319 329 332 321 313 313 324 332 325 321 317 317 335 339 328 315 268 262 282 285 294 297 300 304 271 276 297 303 314 314 308 311 309 305 305 305 307 308 308 310 312
111 109 104 95 91 86 80 83 77 70 70 63 55 61 85 91 76 67 50 33 28 19 12 9 7 8 12 15 10 8 7 3 0 359 359 359 359 359 356 352 350 345 342 343 335 330 311 296 323 328 317 313 310 320 328 323 318 306 305 318 319 317 298 258 265 276 276 287 294 294 284 260 273 292 311 324 305 283 299 300 300 301 300 302 306 309 313 316
104 102 98 92 88 84 83 86 78 70 71 70 63 72 84 89 80 71 53 39 34 23 17 11 8 12 15 15 12 8 4 359 357 357 356 356 356 356 352 349 348 344 344 340 333 330 298 301 324 326 318 316 306 315 326 321 313 299 297 307 312 315 304 275 278 285 284 284 281 278 271 269 285 302 320 331 295 286 295 296 299 304 306 309 311 313 315 318
100 96 93 91 85 82 81 76 73 72 70 76 87 85 86 88 79 67 54 43 33 24 20 15 13 13 10 9 9 6 2 359 358 357 354 353 353 352 350 349 348 342 340 337 332 327 305 308 324 329 321 319 310 316 323 318 308 297 294 306 313 314 308 287 282 299 299 278 278 279 268 275 298 305 318 321 306 301 300 302 309 313 312 312 313 314 317 321
97 96 93 90 86 81 75 69 74 77 71 76 89 90 87 82 73 61 51 42 32 25 20 18 18 11 6 6 4 1 0 359 359 358 356 353 349 349 349 350 346 339 336 333 328 325 314 310 321 330 326 320 317 317 320 317 307 297 297 305 309 308 302 292 274 291 294 275 287 287 282 285 283 285 318 321 313 313 316 318 320 318 316 315 315 316 319 324
100 98 92 87 85 81 75 74 75 75 77 81 86 88 84 76 70 57 48 40 30 25 20 19 17 9 6 4 360 359 359 358 360 358 355 353 348 345 346 346 342 337 333 329 323 321 319 307 309 319 320 317 318 318 318 314 305 302 304 303 303 301 298 292 280 271 273 275 286 292 296 283 193 300 325 321 312 323 326 323 321 319 318 317 316 320 324 327
97 96 91 85 83 81 79 79 74 74 88 89 86 88 84 76 68 54 48 38 28 25 20 17 14 9 5 1 359 359 357 356 357 356 354 352 348 344 343 343 339 335 330 326 322 319 317 298 290 307 315 317 320 321 314 306 302 306 306 301 300 303 302 295 286 278 267 263 278 303 300 247 237 314 324 313 309 322 324 321 319 318 316 314 317 324 327 327
93 93 89 85 83 81 79 82 82 84 91 88 86 86 82 74 64 54 47 35 29 25 17 14 11 7 4 0 358 357 355 355 354 354 353 349 348 344 339 339 337 334 330 324 321 318 313 298 291 303 315 319 321 322 312 304 306 309 306 299 300 303 299 289 285 286 268 250 263 284 285 283 293 313 323 315 318 323 322 320 318 316 314 316 320 325 326 327
93 91 89 88 88 83 80 85 89 88 86 85 84 82 79 73 62 52 43 34 29 23 16 12 7 5 3 360 359 355 353 352 351 352 349 346 348 342 336 337 336 333 331 324 322 319 314 307 299 302 312 318 323 324 311 302 311 313 307 304 305 305 296 277 273 291 283 268 275 276 276 286 296 311 321 322 324 325 322 319 317 315 315 318 322 324 326 327
95 91 89 92 91 87 83 84 86 86 85 83 80 78 74 69 60 49 40 33 26 19 15 10 5 5 2 359 359 355 352 350 348 348 347 344 345 341 336 337 334 333 331 325 322 320 318 315 309 309 315 320 325 325 308 305 316 318 315 312 312 310 303 291 282 286 286 279 278 273 272 283 292 306 316 323 327 324 320 319 317 315 316 320 323 325 327 329
95 92 90 89 87 88 88 83 81 81 81 79 75 73 69 62 55 45 36 30 23 18 14 9 6 4 1 358 357 354 353 350 345 346 346 342 342 341 338 337 335 334 331 325 320 318 317 314 311 314 321 327 331 330 322 320 320 317 316 316 315 312 307 295 285 284 284 282 276 235 262 287 296 307 315 324 328 323 321 320 316 316 320 323 325 327 329 330
91 92 91 87 83 84 84 80 76 73 72 72 70 67 61 54 47 39 32 25 20 17 12 8 6 2 359 358 355 353 354 350 344 344 344 341 340 341 339 337 336 333 331 327 322 316 311 307 308 308 304 313 314 311 315 315 312 311 313 316 316 312 307 296 287 280 278 285 279 244 267 290 300 307 316 325 327 322 321 319 316 319 323 325 327 329 329 329
86 86 85 84 79 74 73 74 71 66 64 64 62 58 53 47 40 33 26 21 17 15 11 7 4 1 358 356 354 353 352 349 344 341 341 340 340 340 339 337 335 333 332 329 324 318 309 305 308 301 288 290 295 300 308 308 305 307 312 315 315 313 308 299 285 277 282 287 286 280 284 293 301 309 320 327 325 321 320 319 319 322 325 326 328 329 329 329
83 80 78 78 75 67 66 67 65 62 60 58 55 51 45 40 34 27 22 18 15 13 10 6 2 359 357 355 354 353 349 347 343 340 340 340 339 340 339 336 335 335 335 331 328 322 311 307 311 307 299 299 302 306 310 308 303 305 309 314 316 314 309 299 287 290 294 289 289 297 299 299 303 314 324 326 323 322 321 320 321 324 326 328 329 329 328 329
77 75 72 72 71 66 63 62 59 55 53 51 49 44 39 34 29 24 19 15 12 10 7 4 1 358 357 355 353 350 347 344 344 343 342 341 341 341 340 339 338 337 337 333 329 325 315 310 314 313 308 308 309 312 315 313 308 307 309 315 318 317 311 304 301 304 299 283 287 299 302 301 308 318 324 322 323 323 320 320 322 324 326 328 329 329 328 329
71 71 68 65 65 63 59 57 54 49 46 45 43 39 34 30 25 21 17 14 11 8 4 2 1 358 357 354 351 348 346 344 343 344 342 341 342 341 340 341 340 338 338 334 329 326 317 312 315 313 309 312 316 320 321 317 312 312 315 320 323 321 316 312 312 312 300 290 290 294 297 303 312 319 321 321 323 322 319 322 324 325 328 329 329 328 327 329
65 66 64 59 58 58 55 52 50 46 42 40 37 34 30 26 22 18 15 13 8 5 3 2 0 358 355 353 349 347 346 344 341 341 341 340 341 341 340 341 340 339 338 335 331 327 319 315 316 314 310 315 324 327 325 321 317 316 320 327 328 327 323 318 316 313 307 302 299 298 302 310 315 318 319 321 323 321 323 326 327 328 329 330 329 327 327 329
61 60 60 55 51 52 51 48 46 42 38 35 32 29 25 21 18 15 13 10 5 4 2 359 359 358 353 351 348 346 346 344 341 341 339 338 340 342 341 340 342 340 338 337 332 326 321 317 317 317 312 316 327 329 325 323 320 319 325 330 330 331 327 320 318 316 311 306 305 307 312 315 317 319 321 322 322 323 326 328 329 329 330 330 328 326 327 330
57 54 54 51 47 47 47 43 41 38 34 32 28 25 21 17 14 12 10 7 3 2 0 357 357 356 352 350 348 347 346 344 342 342 342 341 342 345 344 345 348 343 339 339 334 328 324 317 318 320 311 315 327 329 324 324 323 323 329 329 329 330 326 320 320 320 317 311 309 312 314 315 319 322 322 322 323 326 328 329 329 330 330 328 326 325 328 330
Height
3138 3139 3140 3141 3141 3142 3142 3142 3142 3142 3142 3141 3141 3140 3140 3139 3138 3138 3137 3137 3136 3135 3135 3135 3134 3134 3133 3133 3133 3132 3132 3131 3131 3130 3129 3129 3128 3128 3128 3127 3127 3127 3126 3126 3125 3125 3125 3125 3124 3124 3124 3124 3124 3124 3125 3125 3125 3125 3125 3125 3125 3125 3125 3124 3124 3124 3123 3122 3121 3119 3119 3119 3117 3115 3113 3113 3113 3112 3112 3112 3112 3111 3111 3111 3110 3110 3110 3110
3138 3139 3140 3141 3142 3142 3142 3143 3142 3142 3142 3141 3141 3140 3140 3139 3138 3138 3137 3136 3136 3135 3135 3135 3134 3134 3133 3133 3132 3132 3131 3131 3130 3130 3129 3129 3128 3128 3127 3127 3127 3126 3126 3125 3125 3125 3125 3125 3124 3124 3124 3123 3123 3124 3125 3125 3125 3125 3124 3124 3124 3124 3123 3123 3123 3122 3122 3121 3120 3117 3117 3118 3117 3114 3113 3113 3112 3111 3111 3110 3110 3110 3109 3109 3109 3109 3109 3109
3139 3140 3141 3141 3142 3142 3143 3143 3143 3142 3142 3141 3141 3140 3140 3139 3138 3137 3137 3136 3136 3135 3135 3135 3134 3133 3133 3132 3132 3131 3131 3131 3130 3130 3129 3129 3128 3128 3127 3127 3127 3126 3126 3125 3125 3125 3125 3125 3124 3124 3123 3123 3124 3124 3124 3124 3124 3124 3124 3124 3123 3123 3123 3123 3122 3121 3120 3120 3118 3116 3116 3117 3116 3114 3113 3112 3111 3111 3110 3109 3109 3109 3109 3109 3108 3108 3108 3108
3139 3140 3141 3142 3142 3143 3143 3143 3143 3142 3142 3141 3141 3141 3140 3139 3138 3138 3137 3136 3136 3135 3135 3134 3134 3133 3132 3132 3132 3131 3131 3131 3131 3130 3130 3129 3128 3128 3128 3127 3127 3127 3126 3126 3125 3125 3125 3124 3124 3124 3123 3123 3124 3124 3124 3124 3124 3124 3123 3123 3123 3122 3122 3122 3121 3120 3119 3119 3117 3115 3115 3116 3115 3113 3112 3112 3111 3110 3109 3109 3108 3108 3108 3108 3108 3107 3106 3105
3140 3141 3142 3142 3143 3143 3143 3143 3143 3142 3142 3142 3141 3141 3140 3139 3138 3138 3137 3136 3136 3135 3135 3134 3134 3133 3133 3132 3132 3131 3131 3131 3131 3131 3130 3130 3129 3129 3128 3128 3128 3127 3127 3126 3126 3125 3125 3124 3124 3124 3123 3123 3124 3124 3124 3123 3123 3123 3123 3123 3122 3122 3122 3122 3121 3120 3119 3118 3116 3115 3114 3114 3114 3112 3111 3110 3109 3109 3108 3108 3107 3107 3107 3106 3106 3105 3104 3102
3140 3141 3142 3143 3143 3143 3143 3143 3143 3143 3142 3142 3141 3141 3140 3139 3138 3138 3137 3136 3136 3135 3135 3134 3134 3133 3133 3133 3133 3132 3132 3132 3132 3131 3131 3130 3130 3129 3129 3128 3128 3128 3127 3127 3126 3126 3125 3124 3124 3123 3123 3123 3124 3124 3123 3123 3123 3123 3123 3122 3122 3122 3122 3121 3120 3119 3118 3116 3115 3114 3113 3113 3112 3111 3110 3109 3108 3107 3107 3107 3107 3106 3105 3104 3103 3102 3101 3099
3141 3142 3142 3143 3143 3144 3144 3144 3143 3143 3143 3142 3141 3141 3140 3139 3138 3138 3137 3137 3136 3136 3135 3135 3134 3134 3134 3134 3134 3133 3132 3132 3132 3132 3131 3131 3130 3130 3129 3129 3128 3128 3128 3127 3126 3126 3126 3125 3123 3123 3123 3123 3123 3123 3123 3123 3123 3123 3122 3122 3122 3122 3121 3120 3119 3118 3116 3114 3113 3112 3111 3111 3110 3109 3109 3108 3107 3106 3106 3105 3105 3103 3102 3101 3100 3099 3098 3096
3141 3142 3143 3143 3144 3144 3144 3144 3143 3143 3143 3142 3141 3140 3140 3139 3139 3138 3138 3137 3137 3136 3136 3135 3135 3135 3135 3135 3134 3134 3133 3133 3133 3132 3132 3131 3131 3130 3130 3129 3129 3129 3128 3128 3127 3126 3126 3125 3124 3124 3124 3124 3124 3123 3123 3123 3123 3123 3122 3122 3122 3121 3120 3120 3118 3117 3115 3113 3111 3110 3109 3109 3108 3107 3107 3107 3106 3105 3104 3103 3102 3101 3099 3098 3097 3096 3095 3094
3142 3143 3143 3144 3144 3144 3144 3144 3143 3143 3143 3142 3141 3141 3140 3140 3139 3139 3138 3138 3137 3137 3137 3136 3136 3136 3136 3136 3135 3134 3134 3134 3134 3133 3133 3132 3131 3131 3131 3130 3130 3130 3129 3128 3127 3126 3126 3126 3125 3125 3125 3124 3124 3124 3124 3123 3123 3122 3122 3122 3121 3120 3119 3118 3117 3115 3114 3111 3110 3108 3107 3106 3106 3105 3104 3104 3104 3103 3102 3101 3100 3098 3097 3096 3094 3093 3092 3091
3143 3143 3144 3144 3145 3144 3144 3144 3144 3143 3143 3142 3141 3141 3140 3140 3140 3140 3139 3139 3138 3138 3138 3137 3137 3137 3137 3137 3136 3136 3135 3135 3134 3134 3133 3133 3132 3132 3132 3131 3131 3130 3130 3129 3128 3127 3127 3126 3126 3126 3125 3124 3124 3124 3123 3123 3122 3122 3122 3121 3120 3119 3117 3116 3115 3114 3113 3111 3109 3107 3105 3105 3104 3103 3101 3101 3100 3100 3099 3099 3098 3096 3095 3094 3092 3091 3090 3089
3143 3144 3144 3144 3144 3144 3144 3144 3144 3143 3143 3142 3142 3141 3141 3141 3141 3140 3140 3140 3139 3139 3139 3138 3138 3138 3138 3138 3137 3137 3136 3136 3135 3135 3134 3134 3134 3133 3133 3132 3132 3131 3130 3130 3129 3128 3127 3127 3126 3126 3125 3125 3124 3124 3123 3123 3122 3122 3121 3120 3119 3118 3117 3115 3115 3114 3113 3111 3108 3106 3104 3102 3102 3100 3099 3098 3098 3097 3097 3096 3095 3094 3093 3092 3090 3089 3088 3087
3143 3144 3144 3144 3144 3144 3144 3144 3144 3143 3143 3142 3142 3142 3142 3142 3141 3141 3141 3141 3140 3140 3140 3140 3139 3139 3139 3138 3138 3138 3137 3137 3136 3136 3136 3135 3135 3135 3134 3133 3133 3132 3131 3130 3129 3128 3128 3127 3127 3126 3125 3125 3124 3123 3123 3122 3122 3121 3120 3120 3118 3117 3116 3115 3114 3113 3113 3111 3108 3106 3103 3100 3100 3099 3097 3097 3096 3095 3094 3093 3092 3091 3090 3089 3088 3086 3085 3084
3143 3144 3144 3145 3145 3145 3145 3144 3144 3143 3143 3143 3143 3143 3143 3142 3142 3142 3142 3142 3142 3141 3141 3141 3140 3140 3140 3139 3139 3139 3138 3138 3137 3137 3137 3136 3136 3136 3135 3134 3133 3132 3131 3130 3129 3129 3128 3127 3127 3126 3125 3124 3124 3123 3123 3122 3121 3121 3120 3119 3118 3117 3116 3115 3114 3113 3112 3111 3108 3106 3103 3100 3099 3098 3096 3095 3094 3093 3092 3091 3090 3089 3088 3086 3085 3084 3083 3081
3144 3144 3145 3145 3145 3145 3145 3144 3144 3144 3144 3144 3144 3144 3143 3143 3143 3143 3143 3143 3143 3143 3142 3142 3141 3141 3141 3141 3140 3139 3139 3139 3138 3138 3137 3137 3136 3136 3135 3134 3133 3132 3131 3130 3129 3128 3128 3127 3126 3126 3125 3124 3123 3123 3122 3122 3121 3120 3119 3118 3117 3116 3115 3114 3114 3112 3112 3110 3108 3106 3101 3099 3098 3097 3095 3094 3092 3092 3091 3090 3088 3087 3085 3084 3083 3082 3080 3079
3144 3144 3145 3145 3145 3145 3145 3144 3144 3144 3145 3145 3145 3145 3144 3144 3144 3144 3144 3144 3144 3144 3143 3143 3142 3142 3142 3141 3141 3140 3139 3139 3139 3138 3138 3137 3137 3136 3135 3134 3133 3132 3131 3130 3129 3128 3127 3127 3126 3126 3125 3124 3123 3122 3122 3121 3121 3120 3119 3118 3117 3116 3115 3114 3113 3112 3111 3109 3108 3105 3100 3097 3097 3095 3093 3092 3091 3090 3089 3087 3086 3084 3083 3081 3080 3079 3078 3077
3144 3144 3145 3145 3145 3145 3145 3145 3145 3146 3146 3146 3146 3146 3145 3145 3145 3145 3145 3145 3145 3144 3144 3144 3143 3143 3143 3142 3141 3141 3140 3140 3140 3139 3138 3138 3137 3136 3135 3134 3133 3132 3131 3130 3129 3128 3127 3127 3126 3125 3125 3124 3123 3122 3121 3121 3120 3119 3118 3117 3116 3114 3113 3112 3112 3111 3109 3107 3106 3104 3100 3097 3096 3093 3091 3091 3089 3088 3087 3085 3083 3082 3081 3079 3078 3077 3076 3074
3144 3145 3145 3145 3146 3146 3146 3146 3146 3147 3147 3147 3147 3146 3146 3146 3146 3146 3146 3146 3146 3145 3145 3145 3144 3144 3143 3142 3142 3142 3141 3141 3140 3139 3139 3138 3137 3136 3135 3134 3134 3133 3131 3130 3129 3128 3127 3126 3126 3125 3125 3124 3124 3123 3122 3121 3120 3119 3117 3116 3115 3113 3112 3110 3110 3109 3107 3105 3103 3102 3099 3096 3094 3092 3090 3089 3087 3086 3085 3083 3081 3080 3078 3077 3075 3074 3073 3072
3144 3145 3145 3146 3146 3147 3147 3147 3148 3148 3148 3148 3148 3148 3147 3147 3147 3147 3147 3147 3146 3146 3146 3145 3145 3144 3143 3143 3143 3143 3142 3141 3141 3140 3139 3138 3137 3136 3135 3134 3133 3132 3130 3129 3128 3127 3126 3125 3125 3125 3125 3124 3123 3122 3121 3120 3119 3117 3116 3115 3113 3112 3111 3109 3108 3106 3104 3103 3101 3099 3096 3094 3092 3090 3088 3086 3085 3084 3083 3081 3079 3078 3076 3074 3073 3071 3070 3069
3145 3146 3146 3147 3147 3148 3148 3148 3149 3149 3149 3149 3149 3149 3148 3148 3148 3148 3148 3148 3148 3147 3146 3146 3146 3145 3145 3145 3144 3143 3142 3142 3142 3140 3139 3138 3137 3136 3135 3134 3133 3131 3129 3128 3128 3127 3126 3125 3124 3124 3124 3123 3122 3121 3120 3120 3118 3117 3116 3115 3113 3111 3110 3109 3107 3105 3102 3098 3097 3096 3093 3091 3089 3087 3085 3084 3083 3082 3081 3079 3077 3075 3073 3071 3070 3068 3067 3066
3146 3146 3147 3148 3148 3148 3149 3149 3150 3150 3150 3150 3150 3150 3149 3149 3149 3149 3149 3149 3149 3148 3147 3147 3147 3146 3145 3145 3144 3144 3143 3143 3142 3140 3139 3138 3137 3136 3135 3133 3132 3130 3129 3128 3127 3127 3126 3125 3124 3124 3123 3122 3121 3121 3120 3120 3119 3117 3116 3115 3113 3110 3108 3107 3105 3103 3101 3095 3092 3092 3090 3087 3086 3083 3082 3081 3080 3079 3078 3077 3074 3072 3069 3067 3066 3065 3064 3063
3147 3147 3148 3148 3149 3149 3150 3150 3151 3151 3151 3151 3151 3151 3150 3150 3150 3150 3151 3150 3149 3148 3148 3148 3147 3146 3146 3146 3145 3144 3143 3142 3141 3140 3139 3138 3137 3135 3134 3133 3132 3130 3129 3128 3127 3126 3125 3125 3124 3124 3123 3123 3122 3122 3121 3120 3119 3117 3116 3113 3112 3110 3106 3105 3104 3101 3099 3093 3088 3089 3086 3084 3083 3080 3078 3078 3077 3076 3075 3074 3072 3069 3066 3064 3063 3062 3061 3059
3147 3148 3149 3149 3150 3151 3151 3152 3152 3152 3152 3152 3152 3152 3152 3151 3151 3151 3151 3150 3149 3149 3149 3148 3148 3147 3147 3146 3145 3144 3143 3142 3141 3140 3139 3137 3136 3135 3134 3133 3131 3130 3128 3127 3127 3126 3126 3125 3125 3124 3124 3123 3123 3122 3121 3119 3118 3116 3114 3112 3110 3109 3104 3100 3100 3099 3097 3092 3086 3085 3082 3080 3080 3077 3075 3075 3075 3074 3073 3071 3069 3066 3064 3062 3061 3060 3058 3056
3148 3149 3149 3150 3151 3152 3153 3153 3153 3153 3153 3153 3153 3153 3153 3152 3152 3152 3152 3151 3150 3150 3150 3149 3149 3148 3147 3146 3145 3144 3143 3143 3141 3140 3138 3137 3136 3135 3134 3133 3131 3130 3130 3128 3128 3127 3126 3126 3126 3125 3124 3124 3123 3121 3120 3119 3118 3115 3113 3111 3109 3108 3104 3097 3094 3094 3093 3090 3085 3082 3078 3076 3076 3074 3072 3073 3073 3072 3070 3068 3066 3063 3061 3059 3058 3057 3055 3053
3149 3150 3151 3152 3153 3153 3154 3154 3154 3154 3154 3154 3154 3153 3153 3153 3153 3153 3153 3152 3151 3151 3151 3150 3150 3149 3147 3146 3145 3144 3143 3142 3140 3139 3138 3137 3136 3134 3133 3133 3132 3131 3130 3130 3129 3128 3127 3127 3126 3125 3124 3123 3122 3120 3119 3118 3116 3114 3112 3110 3108 3106 3104 3099 3093 3089 3087 3088 3086 3081 3076 3073 3073 3072 3071 3071 3071 3069 3067 3065 3062 3060 3059 3057 3056 3054 3052 3050
3150 3151 3152 3153 3154 3155 3155 3155 3155 3155 3155 3154 3154 3154 3153 3153 3153 3153 3153 3153 3152 3152 3152 3151 3150 3149 3147 3146 3145 3144 3143 3141 3140 3139 3138 3137 3136 3135 3134 3133 3132 3131 3131 3130 3129 3129 3128 3127 3126 3125 3123 3122 3121 3119 3118 3115 3114 3113 3110 3109 3107 3104 3101 3098 3094 3088 3084 3084 3084 3082 3077 3071 3070 3072 3070 3070 3069 3066 3064 3062 3060 3058 3056 3055 3054 3052 3049 3046
3151 3152 3153 3154 3155 3155 3155 3155 3155 3155 3155 3155 3155 3154 3154 3154 3153 3153 3153 3153 3153 3152 3152 3151 3150 3149 3148 3147 3146 3144 3143 3142 3140 3139 3139 3138 3137 3136 3135 3134 3133 3132 3131 3130 3130 3129 3127 3127 3125 3124 3123 3121 3120 3118 3116 3114 3112 3111 3109 3107 3105 3103 3099 3095 3092 3088 3084 3082 3081 3082 3079 3071 3068 3071 3070 3068 3066 3063 3061 3060 3058 3056 3054 3053 3052 3049 3046 3043
3152 3153 3154 3155 3156 3156 3156 3156 3156 3156 3155 3155 3155 3155 3154 3154 3153 3153 3153 3153 3154 3153 3153 3152 3151 3149 3148 3147 3146 3145 3144 3143 3141 3141 3140 3139 3137 3136 3136 3135 3133 3132 3131 3130 3129 3128 3127 3126 3125 3123 3122 3120 3118 3116 3114 3113 3111 3109 3107 3105 3102 3100 3097 3093 3089 3087 3083 3081 3079 3079 3078 3071 3066 3068 3068 3066 3063 3060 3059 3058 3056 3054 3053 3052 3049 3046 3043 3039
3154 3155 3155 3156 3156 3156 3156 3156 3156 3156 3156 3156 3155 3155 3155 3154 3153 3153 3152 3154 3156 3155 3154 3153 3151 3150 3149 3147 3146 3145 3145 3144 3143 3141 3140 3139 3138 3137 3136 3135 3133 3132 3131 3130 3129 3128 3126 3125 3124 3122 3121 3119 3117 3115 3113 3112 3110 3107 3105 3102 3100 3097 3094 3090 3086 3084 3082 3079 3077 3076 3075 3071 3065 3064 3064 3062 3060 3058 3058 3056 3054 3053 3052 3050 3047 3043 3040 3037
3155 3155 3156 3157 3157 3157 3157 3157 3157 3156 3156 3156 3155 3155 3155 3154 3154 3153 3153 3156 3158 3156 3155 3154 3152 3152 3150 3149 3148 3146 3145 3144 3143 3141 3140 3139 3138 3137 3135 3134 3133 3131 3130 3129 3128 3127 3125 3124 3122 3120 3119 3118 3116 3115 3113 3111 3108 3106 3103 3100 3097 3095 3091 3086 3083 3081 3080 3078 3075 3073 3073 3071 3064 3061 3061 3059 3058 3057 3057 3055 3054 3051 3049 3047 3043 3040 3036 3032
3156 3156 3157 3157 3157 3157 3157 3157 3156 3156 3156 3156 3155 3155 3155 3154 3154 3154 3154 3157 3158 3156 3155 3154 3153 3152 3151 3150 3149 3147 3146 3145 3143 3142 3141 3139 3137 3136 3135 3134 3133 3131 3130 3129 3128 3126 3125 3123 3121 3120 3118 3116 3115 3114 3112 3110 3107 3104 3102 3097 3093 3091 3087 3083 3081 3080 3079 3075 3072 3072 3071 3070 3065 3060 3059 3058 3057 3056 3055 3053 3051 3048 3046 3043 3039 3035 3031 3027
3156 3157 3157 3157 3157 3157 3157 3157 3156 3156 3156 3155 3155 3155 3155 3155 3154 3154 3157 3158 3157 3156 3156 3154 3153 3152 3151 3150 3149 3147 3146 3145 3143 3143 3142 3140 3138 3137 3135 3134 3132 3131 3130 3129 3127 3125 3124 3122 3120 3118 3117 3115 3114 3113 3112 3109 3106 3103 3101 3096 3090 3085 3081 3080 3079 3079 3078 3073 3071 3070 3068 3067 3065 3060 3058 3057 3056 3054 3052 3049 3047 3044 3041 3038 3035 3030 3026 3022
3157 3157 3157 3157 3157 3157 3157 3157 3156 3156 3156 3155 3155 3155 3155 3155 3155 3156 3158 3158 3157 3156 3156 3154 3154 3152 3151 3150 3148 3147 3146 3144 3143 3142 3140 3139 3137 3135 3134 3133 3131 3130 3129 3127 3125 3124 3122 3120 3119 3118 3116 3114 3112 3111 3110 3108 3105 3102 3100 3097 3092 3086 3082 3081 3080 3079 3076 3070 3068 3068 3066 3063 3060 3057 3057 3056 3053 3051 3048 3045 3043 3040 3037 3034 3030 3026 3021 3017
3157 3157 3157 3157 3157 3157 3157 3157 3157 3156 3156 3156 3156 3156 3155 3156 3157 3158 3158 3157 3157 3157 3156 3155 3154 3152 3151 3150 3148 3147 3146 3144 3143 3141 3140 3139 3137 3135 3134 3133 3132 3131 3129 3127 3124 3122 3120 3118 3118 3117 3115 3113 3111 3109 3107 3105 3103 3101 3099 3097 3096 3094 3092 3089 3085 3082 3075 3066 3063 3066 3066 3061 3057 3055 3055 3054 3052 3049 3046 3042 3040 3037 3034 3030 3026 3021 3017 3013
3157 3157 3158 3158 3158 3158 3157 3157 3157 3157 3157 3156 3156 3156 3156 3156 3158 3158 3158 3158 3157 3157 3156 3155 3154 3153 3151 3150 3148 3147 3146 3144 3143 3142 3140 3139 3138 3137 3136 3134 3133 3132 3130 3128 3125 3123 3120 3118 3117 3116 3114 3112 3111 3109 3107 3105 3103 3100 3099 3098 3097 3098 3098 3094 3088 3084 3076 3066 3060 3061 3062 3058 3054 3053 3053 3052 3050 3047 3043 3040 3037 3034 3031 3026 3021 3016 3012 3008
3158 3158 3158 3158 3158 3158 3158 3158 3157 3157 3157 3157 3157 3157 3156 3157 3158 3158 3158 3158 3158 3157 3156 3155 3154 3153 3152 3150 3149 3147 3146 3145 3143 3142 3140 3139 3138 3136 3135 3134 3133 3132 3130 3128 3125 3123 3121 3118 3117 3116 3114 3112 3110 3108 3107 3104 3102 3100 3098 3098 3096 3096 3095 3091 3085 3081 3077 3069 3060 3056 3056 3053 3051 3051 3050 3050 3047 3044 3041 3038 3034 3030 3026 3021 3017 3011 3007 3004
3159 3159 3159 3159 3159 3159 3158 3158 3158 3158 3158 3158 3157 3157 3157 3158 3158 3159 3159 3158 3158 3157 3156 3155 3154 3153 3151 3150 3149 3148 3147 3145 3143 3142 3140 3139 3137 3136 3135 3133 3132 3131 3130 3128 3126 3124 3121 3117 3116 3115 3112 3111 3109 3107 3106 3103 3101 3099 3097 3096 3095 3093 3090 3087 3082 3078 3077 3071 3058 3052 3051 3049 3048 3048 3046 3046 3044 3041 3039 3034 3029 3026 3021 3017 3012 3007 3003 3000
3160 3160 3160 3160 3159 3159 3159 3159 3159 3159 3158 3158 3158 3158 3158 3158 3159 3159 3159 3159 3158 3157 3156 3155 3154 3153 3152 3151 3150 3149 3147 3145 3144 3142 3140 3139 3137 3136 3135 3133 3132 3131 3129 3128 3126 3124 3120 3114 3112 3113 3110 3109 3108 3105 3103 3102 3099 3097 3095 3094 3093 3090 3088 3086 3082 3077 3076 3070 3055 3048 3048 3047 3046 3045 3043 3043 3041 3038 3034 3029 3025 3022 3017 3013 3009 3004 3000 2996
3160 3160 3160 3160 3160 3160 3160 3160 3159 3159 3159 3158 3158 3158 3159 3159 3159 3160 3160 3159 3159 3158 3157 3156 3155 3154 3153 3151 3150 3148 3147 3145 3143 3142 3140 3139 3137 3136 3135 3134 3133 3131 3129 3128 3126 3124 3120 3112 3108 3110 3109 3107 3106 3103 3101 3099 3097 3095 3094 3092 3092 3089 3086 3085 3083 3079 3076 3068 3054 3045 3044 3045 3044 3043 3041 3039 3036 3033 3029 3026 3022 3017 3013 3009 3005 3000 2996 2991
3161 3161 3161 3161 3161 3161 3161 3160 3160 3159 3159 3159 3159 3159 3160 3160 3160 3160 3160 3160 3159 3158 3157 3156 3155 3154 3153 3152 3150 3148 3147 3145 3144 3142 3141 3140 3138 3136 3135 3134 3132 3130 3128 3127 3125 3123 3121 3115 3107 3107 3108 3106 3103 3102 3099 3097 3096 3094 3093 3091 3090 3089 3086 3083 3081 3079 3075 3068 3056 3045 3039 3040 3040 3039 3038 3036 3033 3030 3026 3022 3018 3014 3010 3006 3001 2996 2991 2985
3163 3163 3162 3162 3162 3161 3161 3160 3160 3159 3160 3160 3160 3160 3161 3161 3161 3161 3161 3160 3159 3159 3158 3157 3156 3155 3153 3152 3150 3149 3147 3146 3144 3143 3142 3140 3139 3136 3135 3133 3132 3130 3127 3126 3124 3121 3120 3117 3108 3104 3106 3105 3103 3101 3098 3096 3095 3093 3091 3090 3088 3087 3085 3081 3077 3074 3073 3067 3059 3050 3038 3033 3036 3036 3035 3034 3031 3028 3024 3019 3014 3010 3006 3002 2997 2992 2987 2981
3164 3164 3163 3163 3162 3162 3162 3161 3160 3161 3161 3161 3161 3161 3162 3162 3162 3162 3161 3161 3160 3159 3158 3157 3156 3155 3153 3152 3151 3149 3148 3146 3145 3144 3142 3140 3139 3136 3134 3132 3130 3129 3127 3124 3123 3120 3118 3115 3108 3103 3102 3102 3100 3100 3097 3095 3094 3093 3091 3089 3087 3085 3083 3080 3074 3069 3069 3064 3059 3055 3039 3028 3032 3035 3033 3032 3029 3025 3021 3015 3010 3006 3001 2997 2992 2988 2982 2977
3165 3164 3164 3163 3163 3163 3163 3162 3162 3162 3162 3162 3162 3162 3162 3163 3163 3162 3162 3161 3160 3159 3158 3157 3156 3155 3154 3152 3151 3149 3147 3146 3145 3144 3142 3140 3139 3136 3134 3132 3129 3127 3125 3123 3121 3120 3117 3113 3107 3102 3101 3100 3098 3097 3095 3095 3093 3092 3090 3087 3085 3083 3081 3079 3073 3065 3064 3061 3057 3055 3041 3026 3029 3032 3029 3028 3026 3021 3017 3011 3006 3001 2996 2992 2988 2983 2978 2972
3166 3165 3165 3165 3165 3164 3164 3164 3164 3164 3163 3163 3163 3163 3163 3163 3163 3163 3162 3161 3160 3159 3158 3158 3156 3155 3154 3152 3151 3150 3148 3146 3144 3143 3141 3139 3138 3136 3133 3131 3128 3126 3124 3122 3120 3118 3117 3113 3107 3100 3096 3096 3095 3095 3094 3094 3092 3089 3087 3085 3082 3080 3077 3076 3072 3065 3061 3055 3054 3054 3039 3024 3027 3029 3025 3024 3022 3017 3013 3007 3002 2997 2992 2988 2983 2978 2973 2967
3167 3166 3166 3166 3166 3166 3166 3165 3165 3165 3164 3164 3164 3164 3164 3164 3163 3163 3162 3162 3161 3160 3159 3158 3157 3155 3154 3152 3151 3150 3148 3146 3144 3142 3140 3138 3136 3134 3132 3129 3127 3125 3123 3121 3119 3118 3116 3114 3110 3103 3097 3093 3091 3091 3091 3090 3089 3086 3084 3082 3080 3077 3075 3072 3069 3066 3060 3050 3050 3050 3034 3020 3023 3025 3021 3021 3017 3012 3008 3003 2999 2994 2988 2984 2979 2973 2968 2963
3169 3168 3168 3168 3168 3168 3167 3166 3166 3166 3165 3165 3165 3165 3164 3164 3164 3163 3163 3162 3161 3160 3159 3158 3157 3155 3154 3153 3151 3149 3148 3146 3143 3141 3139 3137 3134 3133 3130 3128 3126 3123 3122 3120 3118 3117 3115 3114 3112 3109 3105 3101 3096 3094 3091 3089 3086 3083 3081 3080 3077 3075 3073 3070 3067 3065 3058 3047 3045 3044 3029 3016 3019 3021 3017 3016 3012 3006 3003 2999 2995 2990 2985 2980 2975 2969 2964 2959
3171 3170 3170 3169 3170 3170 3168 3167 3167 3167 3166 3166 3166 3165 3165 3165 3164 3163 3163 3162 3161 3160 3159 3158 3157 3155 3154 3152 3151 3149 3147 3145 3143 3140 3138 3136 3133 3131 3129 3127 3125 3122 3121 3119 3117 3115 3113 3112 3111 3110 3107 3105 3100 3096 3094 3091 3086 3081 3078 3077 3075 3072 3069 3067 3065 3061 3054 3046 3040 3037 3029 3018 3015 3016 3014 3011 3007 3002 2998 2994 2989 2985 2980 2975 2970 2965 2960 2956
3172 3172 3172 3171 3171 3171 3169 3169 3169 3168 3167 3167 3166 3166 3166 3165 3164 3164 3163 3162 3161 3160 3159 3158 3156 3155 3153 3152 3150 3148 3146 3144 3142 3140 3138 3135 3133 3131 3128 3126 3124 3122 3120 3118 3116 3114 3111 3109 3109 3107 3104 3102 3099 3094 3093 3091 3085 3080 3077 3073 3071 3070 3066 3065 3061 3055 3052 3047 3035 3029 3029 3021 3013 3013 3012 3007 3003 2999 2994 2990 2985 2980 2975 2971 2966 2961 2956 2952
3174 3173 3173 3173 3172 3172 3171 3170 3170 3169 3168 3168 3167 3167 3166 3165 3165 3164 3163 3162 3161 3160 3159 3158 3156 3154 3152 3151 3149 3147 3144 3142 3140 3138 3136 3133 3131 3129 3127 3125 3123 3120 3119 3117 3115 3113 3110 3106 3105 3103 3100 3098 3097 3094 3091 3088 3083 3079 3075 3071 3068 3067 3064 3060 3056 3052 3050 3046 3032 3025 3025 3020 3014 3013 3010 3005 3001 2996 2991 2987 2982 2977 2972 2967 2962 2957 2952 2947
3176 3175 3175 3174 3173 3173 3172 3171 3170 3170 3169 3169 3168 3167 3167 3166 3165 3164 3163 3162 3161 3160 3159 3157 3156 3154 3152 3150 3148 3146 3143 3140 3137 3136 3134 3132 3130 3127 3125 3123 3121 3119 3118 3116 3114 3112 3109 3105 3103 3101 3096 3093 3093 3092 3088 3085 3080 3076 3073 3070 3067 3064 3061 3057 3053 3050 3047 3041 3032 3027 3023 3019 3016 3013 3008 3004 3000 2995 2990 2985 2979 2973 2968 2963 2957 2952 2948 2943
3177 3176 3176 3175 3174 3173 3173 3172 3171 3171 3170 3170 3169 3168 3167 3166 3165 3164 3163 3162 3161 3160 3159 3157 3156 3154 3152 3150 3147 3145 3143 3141 3138 3135 3133 3131 3129 3127 3125 3123 3121 3119 3117 3115 3113 3111 3108 3104 3101 3099 3093 3088 3089 3088 3084 3082 3078 3072 3069 3067 3065 3060 3057 3053 3050 3047 3043 3036 3031 3027 3021 3016 3015 3011 3005 3001 2997 2991 2985 2979 2974 2969 2964 2958 2953 2949 2944 2939
3179 3178 3177 3176 3175 3174 3173 3173 3172 3172 3171 3170 3169 3168 3167 3166 3165 3164 3163 3162 3161 3160 3158 3157 3155 3154 3151 3149 3147 3145 3143 3141 3139 3136 3134 3131 3129 3127 3125 3123 3122 3119 3117 3115 3112 3110 3107 3103 3100 3098 3091 3084 3085 3085 3081 3077 3074 3069 3066 3064 3061 3057 3053 3050 3048 3045 3040 3034 3028 3023 3018 3012 3009 3006 3001 2997 2993 2987 2980 2974 2969 2964 2960 2955 2950 2945 2941 2936
3180 3179 3178 3177 3176 3175 3174 3173 3173 3172 3171 3170 3170 3169 3168 3167 3166 3164 3163 3162 3160 3159 3158 3156 3154 3153 3150 3148 3146 3144 3142 3140 3138 3136 3134 3132 3129 3128 3126 3124 3122 3119 3117 3115 3112 3109 3106 3102 3099 3097 3090 3082 3082 3081 3077 3073 3069 3065 3063 3061 3058 3055 3051 3047 3045 3043 3040 3035 3027 3021 3016 3011 3006 3002 2997 2991 2987 2982 2976 2970 2965 2960 2956 2952 2947 2942 2937 2932